Time,TemperatureF,DewpointF,PressureIn,WindDirection,WindDirectionDegrees,WindSpeedMPH,WindSpeedGustMPH,Humidity,HourlyPrecipIn,Conditions,Clouds,dailyrainin,SolarRadiationWatts/m^2,SoftwareType,DateUTC
2014-01-26 00:01:00,23.0,2.0,-100.00,West,277,3.0,11.0,39,0.00,,,0.02,0.000000,,2014-01-26 05:01:00,
2014-01-26 00:43:00,23.0,2.0,-100.00,West,277,3.0,11.0,39,0.00,,,0.02,0.000000,,2014-01-26 05:43:00,
2014-01-26 00:52:00,23.0,2.0,-100.00,West,277,3.0,11.0,39,0.00,,,0.02,0.000000,,2014-01-26 05:52:00,
2014-01-26 01:01:00,18.0,4.0,-100.00,WSW,242,2.0,4.0,53,0.00,,,0.02,0.000000,,2014-01-26 06:01:00,
2014-01-26 01:43:00,18.0,4.0,-100.00,WSW,242,2.0,4.0,53,0.00,,,0.02,0.000000,,2014-01-26 06:43:00,
2014-01-26 01:52:00,18.0,4.0,-100.00,WSW,242,2.0,4.0,53,0.00,,,0.02,0.000000,,2014-01-26 06:52:00,
2014-01-26 02:01:00,14.0,3.0,-100.00,ENE,68,2.0,3.0,62,0.00,,,0.02,0.000000,,2014-01-26 07:01:00,
2014-01-26 02:42:00,14.0,3.0,-100.00,ENE,68,2.0,3.0,62,0.00,,,0.02,0.000000,,2014-01-26 07:42:00,
2014-01-26 02:53:00,14.0,3.0,-100.00,ENE,68,2.0,3.0,62,0.00,,,0.02,0.000000,,2014-01-26 07:53:00,
2014-01-26 03:01:00,13.0,3.0,-100.00,NE,43,1.0,3.0,64,0.00,,,0.02,0.000000,,2014-01-26 08:01:00,
2014-01-26 03:22:00,13.0,3.0,-100.00,NE,43,1.0,3.0,64,0.00,,,0.02,0.000000,,2014-01-26 08:22:00,
2014-01-26 03:32:00,13.0,3.0,-100.00,NE,43,1.0,3.0,64,0.00,,,0.02,0.000000,,2014-01-26 08:32:00,
2014-01-26 03:42:00,13.0,3.0,-100.00,NE,43,1.0,3.0,64,0.00,,,0.02,0.000000,,2014-01-26 08:42:00,
2014-01-26 03:52:00,13.0,3.0,-100.00,NE,43,1.0,3.0,64,0.00,,,0.02,0.000000,,2014-01-26 08:52:00,
2014-01-26 04:01:00,12.0,3.0,-100.00,NNW,329,3.0,4.0,67,0.00,,,0.02,0.000000,,2014-01-26 09:01:00,
2014-01-26 04:43:00,12.0,3.0,-100.00,NNW,329,3.0,4.0,67,0.00,,,0.02,0.000000,,2014-01-26 09:43:00,
2014-01-26 04:53:00,12.0,3.0,-100.00,NNW,329,3.0,4.0,67,0.00,,,0.02,0.000000,,2014-01-26 09:53:00,
2014-01-26 05:01:00,12.0,6.0,-100.00,East,97,3.0,5.0,75,0.00,,,0.02,0.000000,,2014-01-26 10:01:00,
2014-01-26 05:33:00,12.0,6.0,-100.00,East,97,3.0,5.0,75,0.00,,,0.02,0.000000,,2014-01-26 10:33:00,
2014-01-26 05:43:00,12.0,6.0,-100.00,East,97,3.0,5.0,75,0.00,,,0.02,0.000000,,2014-01-26 10:43:00,
2014-01-26 05:53:00,12.0,6.0,-100.00,East,97,3.0,5.0,75,0.00,,,0.02,0.000000,,2014-01-26 10:53:00,
2014-01-26 06:01:00,14.0,6.0,-100.00,NNE,14,2.0,3.0,70,0.00,,,0.02,0.000000,,2014-01-26 11:01:00,
2014-01-26 06:42:00,14.0,6.0,-100.00,NNE,14,2.0,3.0,70,0.00,,,0.02,0.000000,,2014-01-26 11:42:00,
2014-01-26 06:52:00,14.0,6.0,-100.00,NNE,14,2.0,3.0,70,0.00,,,0.02,0.000000,,2014-01-26 11:52:00,
2014-01-26 07:01:00,13.0,6.0,-100.00,ESE,109,3.0,5.0,73,0.00,,,0.02,0.000000,,2014-01-26 12:01:00,
2014-01-26 07:42:00,13.0,6.0,-100.00,ESE,109,3.0,5.0,73,0.00,,,0.02,0.000000,,2014-01-26 12:42:00,
2014-01-26 07:52:00,13.0,6.0,-100.00,ESE,109,3.0,5.0,73,0.00,,,0.02,0.000000,,2014-01-26 12:52:00,
2014-01-26 08:01:00,19.0,9.0,-100.00,SE,133,6.0,10.0,63,0.00,,,0.02,5.000000,,2014-01-26 13:01:00,
2014-01-26 08:42:00,19.0,9.0,-100.00,SE,133,6.0,10.0,63,0.00,,,0.02,5.000000,,2014-01-26 13:42:00,
2014-01-26 08:52:00,19.0,9.0,-100.00,SE,133,6.0,10.0,63,0.00,,,0.02,5.000000,,2014-01-26 13:52:00,
2014-01-26 09:01:00,25.0,9.0,-100.00,SE,134,7.0,16.0,50,0.00,,,0.02,93.000000,,2014-01-26 14:01:00,
2014-01-26 09:42:00,25.0,9.0,-100.00,SE,134,7.0,16.0,50,0.00,,,0.02,93.000000,,2014-01-26 14:42:00,
2014-01-26 09:52:00,25.0,9.0,-100.00,SE,134,7.0,16.0,50,0.00,,,0.02,93.000000,,2014-01-26 14:52:00,
2014-01-26 10:01:00,32.0,9.0,-100.00,SE,140,9.0,15.0,37,0.00,,,0.02,194.000000,,2014-01-26 15:01:00,
2014-01-26 10:43:00,32.0,9.0,-100.00,SE,140,9.0,15.0,37,0.00,,,0.02,194.000000,,2014-01-26 15:43:00,
2014-01-26 10:53:00,32.0,9.0,-100.00,SE,140,9.0,15.0,37,0.00,,,0.02,194.000000,,2014-01-26 15:53:00,
2014-01-26 11:01:00,39.0,11.0,-100.00,SSE,147,9.0,18.0,31,0.00,,,0.02,487.000000,,2014-01-26 16:01:00,
2014-01-26 11:43:00,39.0,11.0,-100.00,SSE,147,9.0,18.0,31,0.00,,,0.02,487.000000,,2014-01-26 16:43:00,
2014-01-26 11:53:00,39.0,11.0,-100.00,SSE,147,9.0,18.0,31,0.00,,,0.02,487.000000,,2014-01-26 16:53:00,
2014-01-26 12:01:00,46.0,20.0,-100.00,South,175,9.0,17.0,35,0.00,,,0.02,661.000000,,2014-01-26 17:01:00,
2014-01-26 12:43:00,46.0,20.0,-100.00,South,175,9.0,17.0,35,0.00,,,0.02,661.000000,,2014-01-26 17:43:00,
2014-01-26 12:52:00,46.0,20.0,-100.00,South,175,9.0,17.0,35,0.00,,,0.02,661.000000,,2014-01-26 17:52:00,
2014-01-26 13:01:00,50.0,27.0,-100.00,SSW,193,15.0,27.0,41,0.00,,,0.01,708.000000,,2014-01-26 18:01:00,
2014-01-26 13:42:00,50.0,27.0,-100.00,SSW,193,15.0,27.0,41,0.00,,,0.01,708.000000,,2014-01-26 18:42:00,
2014-01-26 13:53:00,50.0,27.0,-100.00,SSW,193,15.0,27.0,41,0.00,,,0.01,708.000000,,2014-01-26 18:53:00,
2014-01-26 14:01:00,53.0,29.0,-100.00,SSW,195,16.0,26.0,40,0.00,,,0.00,695.000000,,2014-01-26 19:01:00,
2014-01-26 14:42:00,53.0,29.0,-100.00,SSW,195,16.0,26.0,40,0.00,,,0.00,695.000000,,2014-01-26 19:42:00,
2014-01-26 14:52:00,53.0,29.0,-100.00,SSW,195,16.0,26.0,40,0.00,,,0.00,695.000000,,2014-01-26 19:52:00,
2014-01-26 15:01:00,55.0,30.0,-100.00,South,191,14.0,25.0,38,0.00,,,0.00,593.000000,,2014-01-26 20:01:00,
2014-01-26 15:42:00,55.0,30.0,-100.00,South,191,14.0,25.0,38,0.00,,,0.00,593.000000,,2014-01-26 20:42:00,
2014-01-26 15:53:00,55.0,30.0,-100.00,South,191,14.0,25.0,38,0.00,,,0.00,593.000000,,2014-01-26 20:53:00,
2014-01-26 16:01:00,57.0,31.0,-100.00,SSW,199,16.0,25.0,37,0.00,,,0.00,450.000000,,2014-01-26 21:01:00,
2014-01-26 16:43:00,57.0,31.0,-100.00,SSW,199,16.0,25.0,37,0.00,,,0.00,450.000000,,2014-01-26 21:43:00,
2014-01-26 16:54:00,57.0,31.0,-100.00,SSW,199,16.0,25.0,37,0.00,,,0.00,450.000000,,2014-01-26 21:54:00,
2014-01-26 17:01:00,56.0,30.0,-100.00,South,186,14.0,27.0,37,0.00,,,0.00,241.000000,,2014-01-26 22:01:00,
2014-01-26 17:43:00,56.0,30.0,-100.00,South,186,14.0,27.0,37,0.00,,,0.00,241.000000,,2014-01-26 22:43:00,
2014-01-26 17:53:00,56.0,30.0,-100.00,South,186,14.0,27.0,37,0.00,,,0.00,241.000000,,2014-01-26 22:53:00,
2014-01-26 18:01:00,52.0,29.0,-100.00,South,174,9.0,19.0,41,0.00,,,0.00,56.000000,,2014-01-26 23:01:00,
2014-01-26 18:42:00,52.0,29.0,-100.00,South,174,9.0,19.0,41,0.00,,,0.00,56.000000,,2014-01-26 23:42:00,
2014-01-26 18:53:00,52.0,29.0,-100.00,South,174,9.0,19.0,41,0.00,,,0.00,56.000000,,2014-01-26 23:53:00,
2014-01-26 19:01:00,51.0,29.0,-100.00,South,174,11.0,17.0,43,0.00,,,0.00,0.000000,,2014-01-27 00:01:00,
2014-01-26 19:22:00,51.0,29.0,-100.00,South,174,11.0,17.0,43,0.00,,,0.00,0.000000,,2014-01-27 00:22:00,
2014-01-26 19:32:00,51.0,29.0,-100.00,South,174,11.0,17.0,43,0.00,,,0.00,0.000000,,2014-01-27 00:32:00,
2014-01-26 19:42:00,51.0,29.0,-100.00,South,174,11.0,17.0,43,0.00,,,0.00,0.000000,,2014-01-27 00:42:00,
2014-01-26 19:52:00,51.0,29.0,-100.00,South,174,11.0,17.0,43,0.00,,,0.00,0.000000,,2014-01-27 00:52:00,
2014-01-26 20:01:00,50.0,29.0,-100.00,South,173,10.0,17.0,44,0.00,,,0.00,0.000000,,2014-01-27 01:01:00,
2014-01-26 20:42:00,50.0,29.0,-100.00,South,173,10.0,17.0,44,0.00,,,0.00,0.000000,,2014-01-27 01:42:00,
2014-01-26 20:52:00,50.0,29.0,-100.00,South,173,10.0,17.0,44,0.00,,,0.00,0.000000,,2014-01-27 01:52:00,
2014-01-26 21:01:00,50.0,29.0,-100.00,South,179,10.0,15.0,45,0.00,,,0.00,0.000000,,2014-01-27 02:01:00,
2014-01-26 21:42:00,50.0,29.0,-100.00,South,179,10.0,15.0,45,0.00,,,0.00,0.000000,,2014-01-27 02:42:00,
2014-01-26 21:53:00,50.0,29.0,-100.00,South,179,10.0,15.0,45,0.00,,,0.00,0.000000,,2014-01-27 02:53:00,
2014-01-26 22:01:00,48.0,29.0,-100.00,SSE,153,4.0,16.0,48,0.00,,,0.00,0.000000,,2014-01-27 03:01:00,
2014-01-26 22:43:00,48.0,29.0,-100.00,SSE,153,4.0,16.0,48,0.00,,,0.00,0.000000,,2014-01-27 03:43:00,
2014-01-26 22:53:00,48.0,29.0,-100.00,SSE,153,4.0,16.0,48,0.00,,,0.00,0.000000,,2014-01-27 03:53:00,
2014-01-26 23:01:00,46.0,28.0,-100.00,SSE,148,5.0,15.0,50,0.00,,,0.00,0.000000,,2014-01-27 04:01:00,
2014-01-26 23:43:00,46.0,28.0,-100.00,SSE,148,5.0,15.0,50,0.00,,,0.00,0.000000,,2014-01-27 04:43:00,
2014-01-26 23:53:00,46.0,28.0,-100.00,SSE,148,5.0,15.0,50,0.00,,,0.00,0.000000,,2014-01-27 04:53:00,